Retour au catalogue

STARLINK-4397

ActifCommunicationsSSO
NORAD 53205·PAYLOAD·🇺🇸 United States

Lancé Jul 22, 2022 depuis Vandenberg Space Force Base

Loading…

Prochains Passages (prochaines 24 heures)

TLE

FraisSource: CelesTrak SupGP

Époque: Sep 14, 2026, 21:16 UTC

1 53205C 22084S   26257.88659722 -.00023219  00000+0 -72096-3 0  2572
2 53205  97.2843 313.7000 0001475  91.8919 135.2846 15.33442893    10

Suivez STARLINK-4397 en temps réel avec AllMySat

Download on the App Store